Location: Jalan Sepang
(2.8072°N, 101.8021°E)
Time: 04:55:13
(UTC+00:00)

USA 238 DEB - Pass Details

Date: 15 May 2026
Orbit: 883 x 1328 km, 63.4° (Epoch: 10 January)

Event Time Altitude Azimuth Distance (km) Brightness Sun altitude
Exits shadow 21:00:46 74° 143° (SE) 918 3.3 -29.1°
Maximum altitude 21:01:04 76° 113° (ESE) 910 3.3 -29.0°
Drops below altitude 10° 21:06:56 10° 28° (NNE) 2,570 6.3 -27.7°
Sets 21:09:29 0° 26° (NNE) 3,543 7.1 -27.1°
